Home > Weather > Amersfoort > Past weeks

Flag for Netherlands Weather for the Past 2 Weeks in Amersfoort, Netherlands

Now
34 °F

Light snow. More clouds than sun.


Feels Like: 25 °F
Forecast: 31 / 36 °F
Wind: 13 mph from Northeast

Location: Deelen

Current Time: Feb 14, 2016 at 11:26:51 AM

Latest Report: Feb 14, 2016 at 10:55 AM


Visibility: 2 mi

Pressure: 29.18 "Hg

Humidity: 93%

Dew point: 32 °F

Location of AmersfoortLocation

Historic Weather in Amersfoort — Graph

°F

Amersfoort Temperature Yesterday

Maximum temperature yesterday: 41 °F (at 1:55 PM)
Minimum temperature yesterday: 28 °F (at 5:25 AM)
Average temperature yesterday: 35 °F

High & Low Weather Summary for the Past Weeks

 TemperatureHumidityPressure
High54 °F (Feb 1, 3:25 AM)100% (Jan 30, 10:55 AM)30.27 "Hg (Jan 30, 10:55 AM)
Low28 °F (Feb 13, 5:25 AM)62% (Feb 8, 1:25 PM)28.88 "Hg (Feb 9, 3:25 PM)
Average42 °F86%29.63 "Hg
* Reported Jan 30 9:55 AM — Feb 14 9:55 AM, Amersfoort, Weather by CustomWeather, © 2016

Note: Actual official high and low records may vary slightly from our data, if they occured in-between our weather recording intervals... More about our weather records

Advertising

Amersfoort Weather History for the Previous 24 Hours

 ConditionsComfort  
Time TempWeatherWind HumidityBarometerVisibility
9:55 AM
Sun, Feb 14
34 °FLight snow. More clouds than sun.10 mph93%29.15 "Hg2 mi
9:25 AM34 °FLight snow. More clouds than sun.12 mph93%29.12 "Hg2 mi
8:55 AM34 °FLight snow. Mostly cloudy.12 mph93%29.12 "Hg2 mi
8:25 AM32 °FLight snow. Mostly cloudy.13 mph100%29.12 "Hg2 mi
7:55 AM32 °FIce fog.10 mph100%29.09 "Hg3 mi
7:25 AM32 °FLight snow. Partly cloudy.10 mph100%29.09 "Hg3 mi
6:55 AM32 °FLight snow. Overcast.10 mph100%29.09 "Hg2 mi
6:25 AM32 °FLight snow. Partly cloudy.9 mph100%29.09 "Hg2 mi
5:55 AM32 °FLight snow. Passing clouds.10 mph100%29.09 "Hg2 mi
4:55 AM34 °FLight snow. Partly cloudy.12 mph93%29.06 "Hg2 mi
3:55 AM34 °FLight snow. Overcast.12 mph93%29.06 "Hg2 mi
3:25 AM34 °FLight snow. Partly cloudy.10 mph93%29.06 "Hg2 mi
2:55 AM34 °FLight rain. Mostly cloudy.9 mph93%29.06 "Hg1 mi
2:25 AM34 °FLight rain. Passing clouds.9 mph93%29.06 "Hg2 mi
1:55 AM34 °FLight rain. Partly cloudy.12 mph100%29.06 "Hg2 mi
1:25 AM36 °FLight rain. Passing clouds.13 mph93%29.06 "Hg2 mi
12:55 AM36 °FDrizzle. Mostly cloudy.12 mph93%29.06 "Hg2 mi
12:25 AM36 °FDrizzle. Overcast.12 mph93%29.06 "Hg3 mi
11:55 PM
Sat, Feb 13
36 °FPassing clouds.12 mph93%29.06 "Hg4 mi
11:25 PM37 °FDrizzle. Mostly cloudy.10 mph87%29.06 "Hg5 mi
10:55 PM37 °FDrizzle. Mostly cloudy.9 mph87%29.06 "Hg6 mi
9:55 PM37 °FDrizzle. Mostly cloudy.10 mph87%29.06 "Hg6 mi
9:25 PM37 °FLight rain. Mostly cloudy.13 mph87%29.09 "HgN/A
8:55 PM39 °FDrizzle. Mostly cloudy.12 mph75%29.09 "HgN/A
8:25 PM39 °FPassing clouds.10 mph81%29.09 "HgN/A
7:55 PM39 °FDrizzle. Mostly cloudy.10 mph75%29.09 "HgN/A
7:25 PM39 °FMostly cloudy.9 mph75%29.09 "HgN/A
6:55 PM37 °FOvercast.10 mph81%29.09 "HgN/A
6:25 PM37 °FOvercast.12 mph87%29.09 "HgN/A
5:55 PM37 °FDrizzle. Mostly cloudy.12 mph87%29.12 "HgN/A
5:25 PM39 °FDrizzle. Mostly cloudy.12 mph81%29.12 "HgN/A
4:55 PM41 °FPartly sunny.12 mph70%29.12 "HgN/A
4:25 PM41 °FPartly sunny.13 mph70%29.12 "HgN/A
3:55 PM41 °FPartly sunny.9 mph70%29.12 "HgN/A
3:25 PM41 °FBroken clouds.9 mph70%29.15 "HgN/A
2:55 PM41 °FOvercast.12 mph70%29.15 "HgN/A
2:25 PM39 °FMostly cloudy.12 mph75%29.18 "HgN/A
1:55 PM41 °FOvercast.10 mph70%29.18 "HgN/A
1:25 PM39 °FPartly sunny.9 mph75%29.21 "HgN/A
12:55 PM39 °FChilly.9 mph70%29.21 "HgN/A
12:25 PM39 °FChilly.9 mph70%29.24 "HgN/A
11:55 AM37 °FChilly.9 mph81%29.24 "HgN/A
11:25 AM36 °FOvercast.10 mph81%29.27 "HgN/A
Weather by CustomWeather, © 2016

See weather overviewHow to use our weather pages